Time,TemperatureF,DewpointF,PressureIn,WindDirection,WindDirectionDegrees,WindSpeedMPH,WindSpeedGustMPH,Humidity,HourlyPrecipIn,Conditions,Clouds,dailyrainin,SoftwareType,DateUTC
2013-01-11 00:01:00,27.5,20.9,30.42,NNE,22,0.0,0.0,76,0.00,RA,,0.00,WeatherDisplay:10.37,2013-01-11 05:01:00,
2013-01-11 00:03:00,27.5,20.9,30.42,NNW,338,0.0,0.0,76,0.00,RA,,0.00,WeatherDisplay:10.37,2013-01-11 05:03:00,
2013-01-11 00:08:00,27.1,20.5,30.42,NNW,338,0.0,0.0,76,0.00,RA,,0.00,WeatherDisplay:10.37,2013-01-11 05:08:00,
2013-01-11 00:13:00,27.1,20.5,30.41,NW,315,0.0,0.0,76,0.00,CLR,,0.00,WeatherDisplay:10.37,2013-01-11 05:13:00,
2013-01-11 00:18:00,27.1,20.5,30.41,West,270,0.0,0.0,76,0.00,CLR,,0.00,WeatherDisplay:10.37,2013-01-11 05:18:00,
2013-01-11 00:23:00,27.3,21.0,30.41,NW,315,0.0,0.0,77,0.00,CLR,,0.00,WeatherDisplay:10.37,2013-01-11 05:23:00,
2013-01-11 00:28:00,27.9,21.0,30.41,NW,315,3.5,3.5,75,0.00,CLR,,0.00,WeatherDisplay:10.37,2013-01-11 05:28:00,
2013-01-11 00:33:00,28.4,20.8,30.41,NNE,22,2.3,2.3,73,0.00,CLR,,0.00,WeatherDisplay:10.37,2013-01-11 05:33:00,
2013-01-11 00:38:00,28.2,20.7,30.41,ESE,112,1.1,1.1,73,0.00,CLR,,0.00,WeatherDisplay:10.37,2013-01-11 05:38:00,
2013-01-11 00:43:00,28.0,20.5,30.41,NNW,338,0.0,0.0,73,0.00,CLR,,0.00,WeatherDisplay:10.37,2013-01-11 05:43:00,
2013-01-11 00:48:00,27.9,20.7,30.41,WNW,292,1.7,1.7,74,0.00,CLR,,0.00,WeatherDisplay:10.37,2013-01-11 05:48:00,
2013-01-11 00:53:00,27.7,20.5,30.41,East,90,2.3,2.3,74,0.00,CLR,,0.00,WeatherDisplay:10.37,2013-01-11 05:53:00,
2013-01-11 00:58:00,27.3,20.1,30.41,NW,315,0.0,0.0,74,0.00,CLR,,0.00,WeatherDisplay:10.37,2013-01-11 05:58:00,
2013-01-11 01:03:00,27.3,20.4,30.40,South,180,0.0,0.0,75,0.00,CLR,,0.00,WeatherDisplay:10.37,2013-01-11 06:03:00,
2013-01-11 01:08:00,27.5,20.6,30.40,SW,225,0.0,0.0,75,0.00,CLR,,0.00,WeatherDisplay:10.37,2013-01-11 06:08:00,
2013-01-11 01:13:00,27.1,20.2,30.40,WNW,292,0.0,0.0,75,0.00,CLR,,0.00,WeatherDisplay:10.37,2013-01-11 06:13:00,
2013-01-11 01:18:00,27.1,20.5,30.40,South,180,0.0,0.0,76,0.00,CLR,,0.00,WeatherDisplay:10.37,2013-01-11 06:18:00,
2013-01-11 01:23:00,26.6,20.4,30.40,NW,315,0.0,0.0,77,0.00,CLR,,0.00,WeatherDisplay:10.37,2013-01-11 06:23:00,
2013-01-11 01:28:00,26.6,20.4,30.41,WNW,292,0.0,0.0,77,0.00,CLR,,0.00,WeatherDisplay:10.37,2013-01-11 06:28:00,
2013-01-11 01:33:00,26.2,20.0,30.41,ESE,112,0.0,0.0,77,0.00,CLR,,0.00,WeatherDisplay:10.37,2013-01-11 06:33:00,
2013-01-11 01:38:00,25.9,20.0,30.42,NW,315,0.0,0.0,78,0.00,CLR,,0.00,WeatherDisplay:10.37,2013-01-11 06:38:00,
2013-01-11 01:43:00,25.9,20.3,30.42,WNW,292,0.0,0.0,79,0.00,CLR,,0.00,WeatherDisplay:10.37,2013-01-11 06:43:00,
2013-01-11 01:48:00,25.7,20.4,30.42,WSW,248,0.0,0.0,80,0.00,CLR,,0.00,WeatherDisplay:10.37,2013-01-11 06:48:00,
2013-01-11 01:53:00,25.7,20.4,30.41,NNE,22,0.0,0.0,80,0.00,CLR,,0.00,WeatherDisplay:10.37,2013-01-11 06:53:00,
2013-01-11 01:58:00,25.7,20.4,30.41,NW,315,2.2,2.2,80,0.00,CLR,,0.00,WeatherDisplay:10.37,2013-01-11 06:58:00,
2013-01-11 02:03:00,25.7,20.4,30.41,ENE,68,1.1,0.0,80,0.00,CLR,,0.00,WeatherDisplay:10.37,2013-01-11 07:03:00,
2013-01-11 02:08:00,25.5,20.2,30.41,NNE,22,0.0,0.0,80,0.00,CLR,,0.00,WeatherDisplay:10.37,2013-01-11 07:08:00,
2013-01-11 02:14:00,25.2,19.9,30.41,ENE,68,0.0,0.0,80,0.00,CLR,,0.00,WeatherDisplay:10.37,2013-01-11 07:14:00,
2013-01-11 02:19:00,24.8,19.5,30.41,West,270,0.0,0.0,80,0.00,CLR,,0.00,WeatherDisplay:10.37,2013-01-11 07:19:00,
2013-01-11 02:24:00,24.6,19.3,30.41,SW,225,0.0,0.0,80,0.00,CLR,,0.00,WeatherDisplay:10.37,2013-01-11 07:24:00,
2013-01-11 02:29:00,24.6,19.9,30.41,NNW,338,0.0,0.0,82,0.00,CLR,,0.00,WeatherDisplay:10.37,2013-01-11 07:29:00,
2013-01-11 02:34:00,24.6,19.9,30.41,WNW,292,0.0,0.0,82,0.00,CLR,,0.00,WeatherDisplay:10.37,2013-01-11 07:34:00,
2013-01-11 02:39:00,24.4,19.7,30.41,NNE,22,0.0,0.0,82,0.00,CLR,,0.00,WeatherDisplay:10.37,2013-01-11 07:39:00,
2013-01-11 02:44:00,24.4,19.7,30.41,WNW,292,0.0,0.0,82,0.00,CLR,,0.00,WeatherDisplay:10.37,2013-01-11 07:44:00,
2013-01-11 02:49:00,24.6,20.2,30.41,WNW,292,0.0,0.0,83,0.00,CLR,,0.00,WeatherDisplay:10.37,2013-01-11 07:49:00,
2013-01-11 02:54:00,24.4,20.0,30.41,WNW,292,0.0,0.0,83,0.00,CLR,,0.00,WeatherDisplay:10.37,2013-01-11 07:54:00,
2013-01-11 02:59:00,24.4,20.0,30.41,NNE,22,0.0,0.0,83,0.00,CLR,,0.00,WeatherDisplay:10.37,2013-01-11 07:59:00,
2013-01-11 03:04:00,24.3,19.9,30.40,NNW,338,0.0,0.0,83,0.00,CLR,,0.00,WeatherDisplay:10.37,2013-01-11 08:04:00,
2013-01-11 03:09:00,23.9,19.5,30.40,NE,45,0.0,0.0,83,0.00,CLR,,0.00,WeatherDisplay:10.37,2013-01-11 08:09:00,
2013-01-11 03:14:00,23.7,19.3,30.39,WNW,292,0.0,0.0,83,0.00,CLR,,0.00,WeatherDisplay:10.37,2013-01-11 08:14:00,
2013-01-11 03:19:00,23.7,19.9,30.39,WSW,248,2.3,2.3,85,0.00,CLR,,0.00,WeatherDisplay:10.37,2013-01-11 08:19:00,
2013-01-11 03:24:00,23.7,19.9,30.39,WSW,248,1.7,1.7,85,0.00,CLR,,0.00,WeatherDisplay:10.37,2013-01-11 08:24:00,
2013-01-11 03:29:00,24.1,20.2,30.40,East,90,1.1,1.1,85,0.00,CLR,,0.00,WeatherDisplay:10.37,2013-01-11 08:29:00,
2013-01-11 03:34:00,23.9,20.0,30.40,ESE,112,0.0,0.0,85,0.00,CLR,,0.00,WeatherDisplay:10.37,2013-01-11 08:34:00,
2013-01-11 03:39:00,23.7,19.9,30.39,East,90,0.0,0.0,85,0.00,CLR,,0.00,WeatherDisplay:10.37,2013-01-11 08:39:00,
2013-01-11 03:44:00,23.5,19.7,30.39,SE,135,0.0,0.0,85,0.00,CLR,,0.00,WeatherDisplay:10.37,2013-01-11 08:44:00,
2013-01-11 03:49:00,23.2,19.4,30.38,WNW,292,0.0,0.0,85,0.00,CLR,,0.00,WeatherDisplay:10.37,2013-01-11 08:49:00,
2013-01-11 03:54:00,23.5,19.7,30.38,North,360,0.0,0.0,85,0.00,CLR,,0.00,WeatherDisplay:10.37,2013-01-11 08:54:00,
2013-01-11 03:59:00,23.4,19.6,30.38,East,90,0.0,0.0,85,0.00,CLR,,0.00,WeatherDisplay:10.37,2013-01-11 08:59:00,
2013-01-11 04:04:00,23.2,19.6,30.38,West,270,0.0,0.0,86,0.00,CLR,,0.00,WeatherDisplay:10.37,2013-01-11 09:04:00,
2013-01-11 04:09:00,23.2,19.6,30.38,NW,315,0.0,0.0,86,0.00,CLR,,0.00,WeatherDisplay:10.37,2013-01-11 09:09:00,
2013-01-11 04:14:00,23.2,19.6,30.38,WNW,292,0.0,0.0,86,0.00,CLR,,0.00,WeatherDisplay:10.37,2013-01-11 09:14:00,
2013-01-11 04:19:00,23.4,19.8,30.38,WNW,292,0.0,0.0,86,0.00,CLR,,0.00,WeatherDisplay:10.37,2013-01-11 09:19:00,
2013-01-11 04:24:00,23.4,19.8,30.38,SW,225,0.0,0.0,86,0.00,CLR,,0.00,WeatherDisplay:10.37,2013-01-11 09:24:00,
2013-01-11 04:29:00,23.2,19.6,30.38,NW,315,0.0,0.0,86,0.00,CLR,,0.00,WeatherDisplay:10.37,2013-01-11 09:29:00,
2013-01-11 04:34:00,23.0,19.4,30.38,South,180,0.0,0.0,86,0.00,CLR,,0.00,WeatherDisplay:10.37,2013-01-11 09:34:00,
2013-01-11 04:39:00,23.2,19.6,30.38,NW,315,0.0,0.0,86,0.00,CLR,,0.00,WeatherDisplay:10.37,2013-01-11 09:39:00,
2013-01-11 04:44:00,23.2,19.6,30.38,NW,315,1.1,1.5,86,0.00,CLR,,0.00,WeatherDisplay:10.37,2013-01-11 09:44:00,
2013-01-11 04:49:00,23.0,19.4,30.38,NNE,22,0.0,0.0,86,0.00,CLR,,0.00,WeatherDisplay:10.37,2013-01-11 09:49:00,
2013-01-11 04:54:00,23.2,19.6,30.38,North,360,0.0,0.0,86,0.00,CLR,,0.00,WeatherDisplay:10.37,2013-01-11 09:54:00,
2013-01-11 04:59:00,23.0,19.4,30.38,NW,315,2.3,2.3,86,0.00,CLR,,0.00,WeatherDisplay:10.37,2013-01-11 09:59:00,
2013-01-11 05:04:00,23.0,19.4,30.37,WNW,292,0.0,0.0,86,0.00,CLR,,0.00,WeatherDisplay:10.37,2013-01-11 10:04:00,
2013-01-11 05:09:00,23.0,19.7,30.37,West,270,0.0,0.0,87,0.00,CLR,,0.00,WeatherDisplay:10.37,2013-01-11 10:09:00,
2013-01-11 05:14:00,22.8,19.5,30.38,NW,315,0.0,0.0,87,0.00,CLR,,0.00,WeatherDisplay:10.37,2013-01-11 10:14:00,
2013-01-11 05:19:00,22.6,19.3,30.38,NW,315,0.0,0.0,87,0.00,CLR,,0.00,WeatherDisplay:10.37,2013-01-11 10:19:00,
2013-01-11 05:24:00,22.5,19.2,30.38,NW,315,0.0,0.0,87,0.00,CLR,,0.00,WeatherDisplay:10.37,2013-01-11 10:24:00,
2013-01-11 05:29:00,22.5,19.2,30.39,NW,315,0.0,0.0,87,0.00,CLR,,0.00,WeatherDisplay:10.37,2013-01-11 10:29:00,
2013-01-11 05:34:00,22.8,19.5,30.39,WNW,292,0.0,0.0,87,0.00,CLR,,0.00,WeatherDisplay:10.37,2013-01-11 10:34:00,
2013-01-11 05:39:00,22.6,19.3,30.39,West,270,0.0,0.0,87,0.00,CLR,,0.00,WeatherDisplay:10.37,2013-01-11 10:39:00,
2013-01-11 05:44:00,22.8,19.5,30.39,NW,315,0.0,0.0,87,0.00,CLR,,0.00,WeatherDisplay:10.37,2013-01-11 10:44:00,
2013-01-11 05:49:00,22.8,19.8,30.40,West,270,0.0,0.0,88,0.00,CLR,,0.00,WeatherDisplay:10.37,2013-01-11 10:49:00,
2013-01-11 05:54:00,22.8,19.8,30.40,NNW,338,0.0,0.0,88,0.00,CLR,,0.00,WeatherDisplay:10.37,2013-01-11 10:54:00,
2013-01-11 05:59:00,22.8,19.8,30.40,NNW,338,0.0,0.0,88,0.00,CLR,,0.00,WeatherDisplay:10.37,2013-01-11 10:59:00,
2013-01-11 06:04:00,22.8,19.8,30.40,NE,45,0.0,0.0,88,0.00,CLR,,0.00,WeatherDisplay:10.37,2013-01-11 11:04:00,
2013-01-11 06:09:00,22.6,19.6,30.40,NNW,338,0.0,0.0,88,0.00,CLR,,0.00,WeatherDisplay:10.37,2013-01-11 11:09:00,
2013-01-11 06:14:00,22.6,19.6,30.41,West,270,0.0,0.0,88,0.00,CLR,,0.00,WeatherDisplay:10.37,2013-01-11 11:14:00,
2013-01-11 06:19:00,22.6,19.6,30.41,NNE,22,0.0,0.0,88,0.00,CLR,,0.00,WeatherDisplay:10.37,2013-01-11 11:19:00,
2013-01-11 06:24:00,22.5,19.5,30.41,NNW,338,0.0,0.0,88,0.00,CLR,,0.00,WeatherDisplay:10.37,2013-01-11 11:24:00,
2013-01-11 06:29:00,22.8,19.8,30.41,West,270,0.0,0.0,88,0.00,CLR,,0.00,WeatherDisplay:10.37,2013-01-11 11:29:00,
2013-01-11 06:34:00,22.8,19.8,30.41,West,270,0.0,0.0,88,0.00,CLR,,0.00,WeatherDisplay:10.37,2013-01-11 11:34:00,
2013-01-11 06:39:00,22.8,19.8,30.40,South,180,0.0,0.0,88,0.00,CLR,,0.00,WeatherDisplay:10.37,2013-01-11 11:39:00,
2013-01-11 06:44:00,22.6,19.6,30.40,West,270,0.0,0.0,88,0.00,CLR,,0.00,WeatherDisplay:10.37,2013-01-11 11:44:00,
2013-01-11 06:49:00,22.6,19.6,30.40,WNW,292,0.0,0.0,88,0.00,CLR,,0.00,WeatherDisplay:10.37,2013-01-11 11:49:00,
2013-01-11 06:54:00,22.5,19.5,30.40,WNW,292,0.0,0.0,88,0.00,CLR,,0.00,WeatherDisplay:10.37,2013-01-11 11:54:00,
2013-01-11 06:59:00,22.8,19.8,30.40,NW,315,0.0,0.0,88,0.00,CLR,,0.00,WeatherDisplay:10.37,2013-01-11 11:59:00,
2013-01-11 07:04:00,23.0,20.2,30.41,North,360,0.0,0.0,89,0.00,CLR,,0.00,WeatherDisplay:10.37,2013-01-11 12:04:00,
2013-01-11 07:09:00,23.4,20.6,30.41,WNW,292,0.0,0.0,89,0.00,CLR,,0.00,WeatherDisplay:10.37,2013-01-11 12:09:00,
2013-01-11 07:14:00,23.4,20.6,30.42,NNW,338,0.0,0.0,89,0.00,CLR,,0.00,WeatherDisplay:10.37,2013-01-11 12:14:00,
2013-01-11 07:19:00,23.2,20.4,30.42,NW,315,0.0,0.0,89,0.00,CLR,,0.00,WeatherDisplay:10.37,2013-01-11 12:19:00,
2013-01-11 07:24:00,23.2,20.4,30.42,WSW,248,0.0,0.0,89,0.00,CLR,,0.00,WeatherDisplay:10.37,2013-01-11 12:24:00,
2013-01-11 07:29:00,23.2,20.4,30.42,NNW,338,0.0,0.0,89,0.00,CLR,,0.00,WeatherDisplay:10.37,2013-01-11 12:29:00,
2013-01-11 07:34:00,23.7,20.9,30.42,WNW,292,0.0,0.0,89,0.00,CLR,,0.00,WeatherDisplay:10.37,2013-01-11 12:34:00,
2013-01-11 07:39:00,23.9,20.9,30.41,NW,315,0.0,0.0,88,0.00,CLR,,0.00,WeatherDisplay:10.37,2013-01-11 12:39:00,
2013-01-11 07:44:00,24.1,21.1,30.41,ENE,68,0.0,0.0,88,0.00,CLR,,0.00,WeatherDisplay:10.37,2013-01-11 12:44:00,
2013-01-11 07:49:00,24.4,21.1,30.41,ESE,112,0.0,0.0,87,0.00,CLR,,0.00,WeatherDisplay:10.37,2013-01-11 12:49:00,
2013-01-11 07:54:00,24.6,21.0,30.42,NNE,22,0.0,0.0,86,0.00,CLR,,0.00,WeatherDisplay:10.37,2013-01-11 12:54:00,
2013-01-11 07:59:00,24.6,21.0,30.42,WNW,292,0.0,0.0,86,0.00,CLR,,0.00,WeatherDisplay:10.37,2013-01-11 12:59:00,
2013-01-11 08:04:00,24.6,21.0,30.42,NNE,22,0.0,0.0,86,0.00,CLR,,0.00,WeatherDisplay:10.37,2013-01-11 13:04:00,
2013-01-11 08:09:00,25.0,21.4,30.42,NNE,22,0.0,0.0,86,0.00,CLR,,0.00,WeatherDisplay:10.37,2013-01-11 13:09:00,
2013-01-11 08:15:00,25.3,21.7,30.43,NNE,22,0.0,0.0,86,0.00,CLR,,0.00,WeatherDisplay:10.37,2013-01-11 13:15:00,
2013-01-11 08:20:00,26.1,21.9,30.43,NNE,22,0.0,0.0,84,0.00,CLR,,0.00,WeatherDisplay:10.37,2013-01-11 13:20:00,
2013-01-11 08:25:00,26.4,21.9,30.43,NE,45,0.0,0.0,83,0.00,CLR,,0.00,WeatherDisplay:10.37,2013-01-11 13:25:00,
2013-01-11 08:30:00,26.4,22.0,30.42,NE,47,0.0,0.0,83,0.00,CLR,,0.00,WeatherDisplay:10.37,2013-01-11 13:30:00,
2013-01-11 08:35:00,27.0,21.9,30.42,NNE,31,0.0,0.0,81,0.00,CLR,,0.00,WeatherDisplay:10.37,2013-01-11 13:35:00,
2013-01-11 08:40:00,27.3,21.9,30.42,WSW,248,0.0,0.0,80,0.00,CLR,,0.00,WeatherDisplay:10.37,2013-01-11 13:40:00,
2013-01-11 08:45:00,28.0,22.6,30.42,West,272,0.0,0.0,80,0.00,CLR,,0.00,WeatherDisplay:10.37,2013-01-11 13:45:00,
2013-01-11 08:50:00,28.9,22.9,30.41,West,270,0.0,0.0,78,0.00,CLR,,0.00,WeatherDisplay:10.37,2013-01-11 13:50:00,
2013-01-11 08:55:00,30.2,22.6,30.41,NNE,22,0.0,0.0,73,0.00,CLR,,0.00,WeatherDisplay:10.37,2013-01-11 13:55:00,
2013-01-11 09:00:00,30.7,22.4,30.41,NNE,32,1.0,3.0,71,0.00,CLR,,0.00,WeatherDisplay:10.37,2013-01-11 14:00:00,
2013-01-11 09:05:00,31.3,22.0,30.41,ESE,112,1.7,1.7,68,0.00,CLR,,0.00,WeatherDisplay:10.37,2013-01-11 14:05:00,
2013-01-11 09:10:00,31.6,21.5,30.41,East,90,2.7,3.0,66,0.00,CLR,,0.00,WeatherDisplay:10.37,2013-01-11 14:10:00,
2013-01-11 09:15:00,32.4,21.6,30.41,NNE,14,1.0,3.0,64,0.00,CLR,,0.00,WeatherDisplay:10.37,2013-01-11 14:15:00,
2013-01-11 09:20:00,32.5,20.5,30.41,NW,315,4.6,4.6,61,0.00,CLR,,0.00,WeatherDisplay:10.37,2013-01-11 14:20:00,
2013-01-11 09:25:00,33.1,20.7,30.41,NNE,30,2.0,5.0,60,0.00,CLR,,0.00,WeatherDisplay:10.37,2013-01-11 14:25:00,
2013-01-11 09:30:00,33.4,20.6,30.40,NE,41,2.0,3.0,59,0.00,CLR,,0.00,WeatherDisplay:10.37,2013-01-11 14:30:00,
2013-01-11 09:35:00,34.0,20.8,30.40,ENE,68,4.6,4.6,58,0.00,CLR,,0.00,WeatherDisplay:10.37,2013-01-11 14:35:00,
2013-01-11 09:40:00,34.1,20.9,30.40,ENE,64,2.0,3.0,58,0.00,CLR,,0.00,WeatherDisplay:10.37,2013-01-11 14:40:00,
2013-01-11 09:45:00,34.2,20.9,30.40,East,90,4.2,4.2,58,0.00,CLR,,0.00,WeatherDisplay:10.37,2013-01-11 14:45:00,
2013-01-11 09:50:00,34.3,21.0,30.39,NNE,22,2.7,2.7,58,0.00,CLR,,0.00,WeatherDisplay:10.37,2013-01-11 14:50:00,
2013-01-11 09:55:00,34.7,21.0,30.39,ENE,76,2.0,4.0,57,0.00,CLR,,0.00,WeatherDisplay:10.37,2013-01-11 14:55:00,
2013-01-11 10:00:00,35.2,21.5,30.39,ESE,112,2.3,2.3,57,0.00,CLR,,0.00,WeatherDisplay:10.37,2013-01-11 15:00:00,
2013-01-11 10:05:00,35.4,21.2,30.39,NE,48,3.0,4.0,56,0.00,CLR,,0.00,WeatherDisplay:10.37,2013-01-11 15:05:00,
2013-01-11 10:10:00,35.5,21.7,30.39,East,96,1.0,3.0,57,0.00,CLR,,0.00,WeatherDisplay:10.37,2013-01-11 15:10:00,
2013-01-11 10:15:00,36.1,21.9,30.39,NE,45,3.2,3.2,56,0.00,CLR,,0.00,WeatherDisplay:10.37,2013-01-11 15:15:00,
2013-01-11 10:20:00,36.1,22.3,30.39,NE,45,2.3,2.5,57,0.00,CLR,,0.00,WeatherDisplay:10.37,2013-01-11 15:20:00,
2013-01-11 10:25:00,36.8,22.6,30.39,NE,34,2.0,3.0,56,0.00,CLR,,0.00,WeatherDisplay:10.37,2013-01-11 15:25:00,
2013-01-11 10:30:00,37.0,22.7,30.39,NE,45,3.5,3.5,56,0.00,CLR,,0.00,WeatherDisplay:10.37,2013-01-11 15:30:00,
2013-01-11 10:35:00,37.1,22.8,30.39,NE,46,2.0,3.0,56,0.00,CLR,,0.00,WeatherDisplay:10.37,2013-01-11 15:35:00,
2013-01-11 10:40:00,38.1,23.3,30.38,SSE,158,1.1,1.1,55,0.00,CLR,,0.00,WeatherDisplay:10.37,2013-01-11 15:40:00,
2013-01-11 10:45:00,37.6,23.3,30.38,NE,52,2.0,3.0,56,0.00,CLR,,0.00,WeatherDisplay:10.37,2013-01-11 15:45:00,
2013-01-11 10:50:00,38.3,24.0,30.37,ESE,112,4.6,4.6,56,0.00,CLR,,0.00,WeatherDisplay:10.37,2013-01-11 15:50:00,
2013-01-11 10:55:00,38.7,24.3,30.37,WSW,248,2.3,2.5,56,0.00,CLR,,0.00,WeatherDisplay:10.37,2013-01-11 15:55:00,
2013-01-11 11:00:00,38.5,24.6,30.37,South,180,4.6,4.6,57,0.00,CLR,,0.00,WeatherDisplay:10.37,2013-01-11 16:00:00,
2013-01-11 11:05:00,38.5,24.2,30.36,SE,129,5.0,5.0,56,0.00,CLR,,0.00,WeatherDisplay:10.37,2013-01-11 16:05:00,
2013-01-11 11:10:00,38.3,24.4,30.36,SE,135,4.7,4.7,57,0.00,CLR,,0.00,WeatherDisplay:10.37,2013-01-11 16:10:00,
2013-01-11 11:15:00,38.7,24.8,30.35,SE,137,3.0,5.0,57,0.00,CLR,,0.00,WeatherDisplay:10.37,2013-01-11 16:15:00,
2013-01-11 11:20:00,38.5,25.4,30.35,SE,142,5.0,8.0,59,0.00,CLR,,0.00,WeatherDisplay:10.37,2013-01-11 16:20:00,
2013-01-11 11:25:00,38.5,25.8,30.34,ESE,112,5.8,5.8,60,0.00,CLR,,0.00,WeatherDisplay:10.37,2013-01-11 16:25:00,
2013-01-11 11:30:00,38.8,26.1,30.34,SE,132,5.0,6.0,60,0.00,CLR,,0.00,WeatherDisplay:10.37,2013-01-11 16:30:00,
2013-01-11 11:35:00,38.8,26.1,30.34,SE,136,2.0,7.0,60,0.00,CLR,,0.00,WeatherDisplay:10.37,2013-01-11 16:35:00,
2013-01-11 11:40:00,38.8,26.1,30.34,ESE,112,3.5,3.5,60,0.00,CLR,,0.00,WeatherDisplay:10.37,2013-01-11 16:40:00,
2013-01-11 11:45:00,39.0,26.3,30.34,SE,135,5.8,5.8,60,0.00,CLR,,0.00,WeatherDisplay:10.37,2013-01-11 16:45:00,
2013-01-11 11:50:00,38.5,26.2,30.33,SSE,158,4.6,4.6,61,0.00,CLR,,0.00,WeatherDisplay:10.37,2013-01-11 16:50:00,
2013-01-11 11:55:00,39.0,26.7,30.33,SE,135,3.5,3.5,61,0.00,CLR,,0.00,WeatherDisplay:10.37,2013-01-11 16:55:00,
2013-01-11 12:00:00,39.4,26.7,30.33,SE,145,3.0,5.0,60,0.00,CLR,,0.00,WeatherDisplay:10.37,2013-01-11 17:00:00,
2013-01-11 12:05:00,39.2,26.9,30.32,ESE,112,3.5,3.5,61,0.00,CLR,,0.00,WeatherDisplay:10.37,2013-01-11 17:05:00,
2013-01-11 12:10:00,40.1,26.9,30.32,ESE,112,3.5,3.5,59,0.00,CLR,,0.00,WeatherDisplay:10.37,2013-01-11 17:10:00,
2013-01-11 12:15:00,39.6,26.8,30.32,SE,141,2.0,4.0,60,0.00,CLR,,0.00,WeatherDisplay:10.37,2013-01-11 17:15:00,
2013-01-11 12:20:00,39.4,27.1,30.32,South,180,3.5,3.5,61,0.00,CLR,,0.00,WeatherDisplay:10.37,2013-01-11 17:20:00,
2013-01-11 12:25:00,39.2,27.3,30.32,SSE,161,3.0,5.0,62,0.00,CLR,,0.00,WeatherDisplay:10.37,2013-01-11 17:25:00,
2013-01-11 12:30:00,38.8,27.3,30.31,SSE,158,4.6,4.6,63,0.00,CLR,,0.00,WeatherDisplay:10.37,2013-01-11 17:30:00,
2013-01-11 12:35:00,39.0,27.5,30.31,SE,135,3.7,3.7,63,0.00,CLR,,0.00,WeatherDisplay:10.37,2013-01-11 17:35:00,
2013-01-11 12:40:00,39.4,27.5,30.30,South,180,4.2,4.2,62,0.00,CLR,,0.00,WeatherDisplay:10.37,2013-01-11 17:40:00,
2013-01-11 12:45:00,39.4,27.5,30.30,ESE,112,3.5,3.5,62,0.00,CLR,,0.00,WeatherDisplay:10.37,2013-01-11 17:45:00,
2013-01-11 12:50:00,40.5,27.7,30.31,ESE,112,2.3,2.3,60,0.00,CLR,,0.00,WeatherDisplay:10.37,2013-01-11 17:50:00,
2013-01-11 12:55:00,40.3,27.5,30.31,SE,130,1.0,4.0,60,0.00,CLR,,0.00,WeatherDisplay:10.37,2013-01-11 17:55:00,
2013-01-11 13:00:00,40.1,27.7,30.31,SE,146,2.0,3.0,61,0.00,CLR,,0.00,WeatherDisplay:10.37,2013-01-11 18:00:00,
2013-01-11 13:05:00,40.1,27.7,30.31,ESE,112,4.6,4.6,61,0.00,CLR,,0.00,WeatherDisplay:10.37,2013-01-11 18:05:00,
2013-01-11 13:10:00,39.7,27.3,30.31,ESE,115,3.0,5.0,61,0.00,CLR,,0.00,WeatherDisplay:10.37,2013-01-11 18:10:00,
2013-01-11 13:15:00,39.7,27.7,30.31,ESE,119,2.0,4.0,62,0.00,CLR,,0.00,WeatherDisplay:10.37,2013-01-11 18:15:00,
2013-01-11 13:20:00,39.6,27.6,30.31,East,90,3.5,3.5,62,0.00,CLR,,0.00,WeatherDisplay:10.37,2013-01-11 18:20:00,
2013-01-11 13:25:00,39.0,27.5,30.31,ESE,106,3.0,5.0,63,0.00,CLR,,0.00,WeatherDisplay:10.37,2013-01-11 18:25:00,
2013-01-11 13:30:00,38.8,27.7,30.30,SSE,158,3.5,3.5,64,0.00,CLR,,0.00,WeatherDisplay:10.37,2013-01-11 18:30:00,
2013-01-11 13:35:00,38.8,27.7,30.30,ESE,115,2.0,3.0,64,0.00,CLR,,0.00,WeatherDisplay:10.37,2013-01-11 18:35:00,
2013-01-11 13:40:00,39.0,27.8,30.29,NNW,338,1.1,0.0,64,0.00,CLR,,0.00,WeatherDisplay:10.37,2013-01-11 18:40:00,
2013-01-11 13:45:00,39.4,27.8,30.29,ESE,112,0.0,0.0,63,0.00,CLR,,0.00,WeatherDisplay:10.37,2013-01-11 18:45:00,
2013-01-11 13:50:00,39.7,28.1,30.29,East,90,0.0,0.0,63,0.00,CLR,,0.00,WeatherDisplay:10.37,2013-01-11 18:50:00,
2013-01-11 13:55:00,39.9,27.9,30.29,NNE,22,2.3,2.3,62,0.00,CLR,,0.00,WeatherDisplay:10.37,2013-01-11 18:55:00,
2013-01-11 14:00:00,40.1,28.1,30.29,WNW,292,0.0,0.0,62,0.00,CLR,,0.00,WeatherDisplay:10.37,2013-01-11 19:00:00,
2013-01-11 14:05:00,40.3,27.9,30.29,NNW,334,0.0,3.0,61,0.00,CLR,,0.00,WeatherDisplay:10.37,2013-01-11 19:05:00,
2013-01-11 14:10:00,39.9,27.9,30.29,ENE,68,1.1,1.1,62,0.00,CLR,,0.00,WeatherDisplay:10.37,2013-01-11 19:10:00,
2013-01-11 14:15:00,39.6,27.6,30.28,ESE,112,3.5,3.5,62,0.00,CLR,,0.00,WeatherDisplay:10.37,2013-01-11 19:15:00,
2013-01-11 14:20:00,39.3,27.7,30.28,ESE,105,3.0,4.0,63,0.00,CLR,,0.00,WeatherDisplay:10.37,2013-01-11 19:20:00,
2013-01-11 14:25:00,39.0,27.5,30.27,ESE,104,2.0,5.0,63,0.00,CLR,,0.00,WeatherDisplay:10.37,2013-01-11 19:25:00,
2013-01-11 14:30:00,39.0,27.5,30.27,East,90,1.1,1.6,63,0.00,CLR,,0.00,WeatherDisplay:10.37,2013-01-11 19:30:00,
2013-01-11 14:35:00,39.0,27.5,30.27,SE,131,1.0,2.0,63,0.00,CLR,,0.00,WeatherDisplay:10.37,2013-01-11 19:35:00,
2013-01-11 14:40:00,39.0,27.5,30.27,ESE,112,0.0,0.0,63,0.00,CLR,,0.00,WeatherDisplay:10.37,2013-01-11 19:40:00,
2013-01-11 14:45:00,39.0,27.5,30.27,ESE,112,2.3,2.3,63,0.00,CLR,,0.00,WeatherDisplay:10.37,2013-01-11 19:45:00,
2013-01-11 14:50:00,38.8,27.7,30.28,SE,135,0.0,0.0,64,0.00,CLR,,0.00,WeatherDisplay:10.37,2013-01-11 19:50:00,
2013-01-11 14:55:00,38.8,27.7,30.28,ESE,112,0.0,0.0,64,0.00,CLR,,0.00,WeatherDisplay:10.37,2013-01-11 19:55:00,
2013-01-11 15:00:00,38.8,27.7,30.28,ESE,121,0.0,0.0,64,0.00,CLR,,0.00,WeatherDisplay:10.37,2013-01-11 20:00:00,
2013-01-11 15:05:00,38.7,27.6,30.27,SSE,158,0.0,0.0,64,0.00,CLR,,0.00,WeatherDisplay:10.37,2013-01-11 20:05:00,
2013-01-11 15:10:00,38.7,27.9,30.27,ESE,112,0.0,0.0,65,0.00,CLR,,0.00,WeatherDisplay:10.37,2013-01-11 20:10:00,
2013-01-11 15:15:00,38.7,27.6,30.27,SSE,158,0.0,0.0,64,0.00,CLR,,0.00,WeatherDisplay:10.37,2013-01-11 20:15:00,
2013-01-11 15:20:00,38.7,27.6,30.27,ESE,112,0.0,0.0,64,0.00,CLR,,0.00,WeatherDisplay:10.37,2013-01-11 20:20:00,
2013-01-11 15:25:00,38.7,27.6,30.27,SE,135,0.0,0.0,64,0.00,CLR,,0.00,WeatherDisplay:10.37,2013-01-11 20:25:00,
2013-01-11 15:30:00,38.7,27.6,30.26,ESE,112,0.0,0.0,64,0.00,CLR,,0.00,WeatherDisplay:10.37,2013-01-11 20:30:00,
2013-01-11 15:35:00,38.5,27.7,30.26,SE,135,0.0,0.0,65,0.00,CLR,,0.00,WeatherDisplay:10.37,2013-01-11 20:35:00,
2013-01-11 15:40:00,38.3,27.6,30.25,SSE,158,0.0,0.0,65,0.00,CLR,,0.00,WeatherDisplay:10.37,2013-01-11 20:40:00,
2013-01-11 15:45:00,38.3,27.6,30.25,ESE,112,0.0,0.0,65,0.00,CLR,,0.00,WeatherDisplay:10.37,2013-01-11 20:45:00,
2013-01-11 15:50:00,38.1,27.7,30.24,NNE,22,0.0,0.0,66,0.00,CLR,,0.00,WeatherDisplay:10.37,2013-01-11 20:50:00,
2013-01-11 15:55:00,37.9,27.9,30.24,East,90,2.7,2.7,67,0.00,CLR,,0.00,WeatherDisplay:10.37,2013-01-11 20:55:00,
2013-01-11 16:00:00,37.8,27.8,30.24,ESE,112,2.3,2.3,67,0.00,CLR,,0.00,WeatherDisplay:10.37,2013-01-11 21:00:00,
2013-01-11 16:05:00,37.6,27.6,30.23,SE,135,2.7,2.7,67,0.00,CLR,,0.00,WeatherDisplay:10.37,2013-01-11 21:05:00,
2013-01-11 16:10:00,37.6,27.6,30.23,ESE,112,0.0,0.0,67,0.00,CLR,,0.00,WeatherDisplay:10.37,2013-01-11 21:10:00,
2013-01-11 16:15:00,37.4,27.4,30.23,SSE,158,2.3,2.6,67,0.00,CLR,,0.00,WeatherDisplay:10.37,2013-01-11 21:15:00,
2013-01-11 16:20:00,37.4,27.8,30.23,SE,135,0.0,0.0,68,0.00,CLR,,0.00,WeatherDisplay:10.37,2013-01-11 21:20:00,
2013-01-11 16:25:00,37.2,27.6,30.23,ESE,112,2.3,2.3,68,0.00,CLR,,0.00,WeatherDisplay:10.37,2013-01-11 21:25:00,
2013-01-11 16:30:00,37.2,27.6,30.23,SE,135,2.3,2.3,68,0.00,CLR,,0.00,WeatherDisplay:10.37,2013-01-11 21:30:00,
2013-01-11 16:35:00,37.2,27.6,30.23,East,90,0.0,0.0,68,0.00,CLR,,0.00,WeatherDisplay:10.37,2013-01-11 21:35:00,
2013-01-11 16:40:00,37.0,27.4,30.22,South,180,0.0,0.0,68,0.00,CLR,,0.00,WeatherDisplay:10.37,2013-01-11 21:40:00,
2013-01-11 16:45:00,37.0,27.8,30.22,SSE,158,0.0,0.0,69,0.00,CLR,,0.00,WeatherDisplay:10.37,2013-01-11 21:45:00,
2013-01-11 16:50:00,36.9,27.7,30.22,ESE,112,0.0,0.0,69,0.00,CLR,,0.00,WeatherDisplay:10.37,2013-01-11 21:50:00,
2013-01-11 16:55:00,36.9,27.7,30.22,NNE,22,0.0,0.0,69,0.00,CLR,,0.00,WeatherDisplay:10.37,2013-01-11 21:55:00,
2013-01-11 17:00:00,36.7,27.5,30.22,NNE,22,0.0,0.0,69,0.00,CLR,,0.00,WeatherDisplay:10.37,2013-01-11 22:00:00,
2013-01-11 17:05:00,36.7,27.5,30.22,West,270,0.0,0.0,69,0.00,CLR,,0.00,WeatherDisplay:10.37,2013-01-11 22:05:00,
2013-01-11 17:10:00,36.7,27.5,30.22,WNW,292,0.0,0.0,69,0.00,CLR,,0.00,WeatherDisplay:10.37,2013-01-11 22:10:00,
2013-01-11 17:15:00,36.5,27.6,30.23,NNE,22,0.0,0.0,70,0.00,CLR,,0.00,WeatherDisplay:10.37,2013-01-11 22:15:00,
2013-01-11 17:20:00,36.5,27.6,30.23,ESE,112,1.1,1.1,70,0.00,CLR,,0.00,WeatherDisplay:10.37,2013-01-11 22:20:00,
2013-01-11 17:25:00,36.5,27.6,30.23,East,90,0.0,0.0,70,0.00,CLR,,0.00,WeatherDisplay:10.37,2013-01-11 22:25:00,
2013-01-11 17:30:00,36.3,27.8,30.22,East,90,0.0,0.0,71,0.00,CLR,,0.00,WeatherDisplay:10.37,2013-01-11 22:30:00,
2013-01-11 17:35:00,36.3,27.8,30.22,East,90,0.0,0.0,71,0.00,CLR,,0.00,WeatherDisplay:10.37,2013-01-11 22:35:00,
2013-01-11 17:40:00,36.3,27.8,30.22,NNE,22,0.0,0.0,71,0.00,CLR,,0.00,WeatherDisplay:10.37,2013-01-11 22:40:00,
2013-01-11 17:45:00,36.1,27.9,30.22,NE,45,0.0,0.0,72,0.00,CLR,,0.00,WeatherDisplay:10.37,2013-01-11 22:45:00,
2013-01-11 17:50:00,36.1,27.9,30.21,NE,45,0.0,0.0,72,0.00,CLR,,0.00,WeatherDisplay:10.37,2013-01-11 22:50:00,
2013-01-11 17:55:00,36.1,27.9,30.21,NE,45,0.0,0.0,72,0.00,CLR,,0.00,WeatherDisplay:10.37,2013-01-11 22:55:00,
2013-01-11 18:00:00,36.0,27.8,30.21,NE,45,0.0,0.0,72,0.00,CLR,,0.00,WeatherDisplay:10.37,2013-01-11 23:00:00,
2013-01-11 18:05:00,36.0,27.8,30.21,NE,45,0.0,0.0,72,0.00,CLR,,0.00,WeatherDisplay:10.37,2013-01-11 23:05:00,
2013-01-11 18:10:00,36.0,27.8,30.21,NW,315,0.0,0.0,72,0.00,CLR,,0.00,WeatherDisplay:10.37,2013-01-11 23:10:00,
2013-01-11 18:15:00,36.0,28.2,30.21,NNW,338,0.0,0.0,73,0.00,CLR,,0.00,WeatherDisplay:10.37,2013-01-11 23:15:00,
2013-01-11 18:20:00,36.0,28.2,30.21,NNE,22,0.0,0.0,73,0.00,CLR,,0.00,WeatherDisplay:10.37,2013-01-11 23:20:00,
2013-01-11 18:25:00,35.8,28.6,30.20,East,90,1.1,1.1,75,0.00,CLR,,0.00,WeatherDisplay:10.37,2013-01-11 23:25:00,
2013-01-11 18:30:00,35.8,29.0,30.20,ENE,68,0.0,0.0,76,0.00,CLR,,0.00,WeatherDisplay:10.37,2013-01-11 23:30:00,
2013-01-11 18:35:00,35.6,29.1,30.20,ESE,112,0.0,0.0,77,0.00,CLR,,0.00,WeatherDisplay:10.37,2013-01-11 23:35:00,
2013-01-11 18:40:00,35.4,29.2,30.20,ESE,112,0.0,0.0,78,0.00,CLR,,0.00,WeatherDisplay:10.37,2013-01-11 23:40:00,
2013-01-11 18:45:00,35.2,29.6,30.20,ESE,112,1.1,1.3,80,0.00,CLR,,0.00,WeatherDisplay:10.37,2013-01-11 23:45:00,
2013-01-11 18:50:00,35.2,29.6,30.19,ESE,112,1.1,0.0,80,0.00,CLR,,0.00,WeatherDisplay:10.37,2013-01-11 23:50:00,
2013-01-11 18:55:00,35.1,29.9,30.19,ESE,112,2.2,2.2,81,0.00,CLR,,0.00,WeatherDisplay:10.37,2013-01-11 23:55:00,
2013-01-11 19:00:00,34.9,29.7,30.18,ESE,112,3.7,3.7,81,0.00,CLR,,0.00,WeatherDisplay:10.37,2013-01-12 00:00:00,
2013-01-11 19:05:00,34.9,29.7,30.18,ESE,112,3.2,3.2,81,0.00,CLR,,0.00,WeatherDisplay:10.37,2013-01-12 00:05:00,
2013-01-11 19:10:00,34.9,29.7,30.18,ENE,68,2.3,2.3,81,0.00,CLR,,0.00,WeatherDisplay:10.37,2013-01-12 00:10:00,
2013-01-11 19:15:00,34.9,29.7,30.19,East,90,0.0,0.0,81,0.00,CLR,,0.00,WeatherDisplay:10.37,2013-01-12 00:15:00,
2013-01-11 19:20:00,34.9,29.7,30.19,ESE,112,2.7,2.7,81,0.00,CLR,,0.00,WeatherDisplay:10.37,2013-01-12 00:20:00,
2013-01-11 19:26:00,34.9,29.7,30.18,ESE,112,1.1,1.1,81,0.00,CLR,,0.00,WeatherDisplay:10.37,2013-01-12 00:26:00,
2013-01-11 19:31:00,34.7,29.5,30.18,WSW,248,0.0,0.0,81,0.00,CLR,,0.00,WeatherDisplay:10.37,2013-01-12 00:31:00,
2013-01-11 19:36:00,34.7,29.5,30.18,ENE,68,0.0,0.0,81,0.00,CLR,,0.00,WeatherDisplay:10.37,2013-01-12 00:36:00,
2013-01-11 19:41:00,34.7,30.1,30.19,ESE,112,2.3,2.3,83,0.00,CLR,,0.00,WeatherDisplay:10.37,2013-01-12 00:41:00,
2013-01-11 19:46:00,34.7,30.1,30.19,ESE,112,2.3,2.5,83,0.00,CLR,,0.00,WeatherDisplay:10.37,2013-01-12 00:46:00,
2013-01-11 19:51:00,34.7,30.4,30.17,ESE,112,2.3,2.5,84,0.00,CLR,,0.00,WeatherDisplay:10.37,2013-01-12 00:51:00,
2013-01-11 19:56:00,34.7,30.4,30.17,ESE,112,1.1,1.1,84,0.00,CLR,,0.00,WeatherDisplay:10.37,2013-01-12 00:56:00,
2013-01-11 20:01:00,34.7,30.4,30.17,ESE,112,2.7,2.7,84,0.00,CLR,,0.00,WeatherDisplay:10.37,2013-01-12 01:01:00,
2013-01-11 20:06:00,34.9,30.6,30.17,ENE,68,0.0,0.0,84,0.00,CLR,,0.00,WeatherDisplay:10.37,2013-01-12 01:06:00,
2013-01-11 20:11:00,34.9,30.6,30.17,ESE,112,3.5,3.5,84,0.00,CLR,,0.00,WeatherDisplay:10.37,2013-01-12 01:11:00,
2013-01-11 20:16:00,34.9,30.6,30.17,East,90,1.1,1.4,84,0.00,CLR,,0.00,WeatherDisplay:10.37,2013-01-12 01:16:00,
2013-01-11 20:21:00,35.1,30.8,30.17,ESE,112,1.7,1.7,84,0.00,CLR,,0.00,WeatherDisplay:10.37,2013-01-12 01:21:00,
2013-01-11 20:26:00,35.1,31.0,30.17,ESE,112,2.3,2.3,85,0.01,RA,,0.01,WeatherDisplay:10.37,2013-01-12 01:26:00,
2013-01-11 20:31:00,35.1,31.0,30.17,ENE,68,2.2,2.2,85,0.02,RA,,0.02,WeatherDisplay:10.37,2013-01-12 01:31:00,
2013-01-11 20:36:00,35.1,31.3,30.17,North,360,1.1,1.3,86,0.03,RA,,0.03,WeatherDisplay:10.37,2013-01-12 01:36:00,
2013-01-11 20:41:00,35.2,31.4,30.17,East,90,0.0,0.0,86,0.03,RA,,0.03,WeatherDisplay:10.37,2013-01-12 01:41:00,
2013-01-11 20:46:00,35.2,31.7,30.17,East,90,2.2,2.2,87,0.04,RA,,0.04,WeatherDisplay:10.37,2013-01-12 01:46:00,
2013-01-11 20:51:00,35.2,31.7,30.16,ESE,112,1.1,1.1,87,0.04,RA,,0.04,WeatherDisplay:10.37,2013-01-12 01:51:00,
2013-01-11 20:56:00,35.2,32.0,30.16,ESE,112,2.3,2.3,88,0.04,CLR,,0.04,WeatherDisplay:10.37,2013-01-12 01:56:00,
2013-01-11 21:01:00,35.2,32.0,30.16,East,90,1.1,1.1,88,0.04,CLR,,0.04,WeatherDisplay:10.37,2013-01-12 02:01:00,
2013-01-11 21:06:00,35.2,32.0,30.16,SSE,158,0.0,0.0,88,0.04,CLR,,0.04,WeatherDisplay:10.37,2013-01-12 02:06:00,
2013-01-11 21:11:00,35.2,32.3,30.16,SSE,158,0.0,0.0,89,0.05,RA,,0.05,WeatherDisplay:10.37,2013-01-12 02:11:00,
2013-01-11 21:16:00,35.1,32.2,30.16,South,180,0.0,0.0,89,0.05,RA,,0.05,WeatherDisplay:10.37,2013-01-12 02:16:00,
2013-01-11 21:21:00,35.1,32.2,30.16,ESE,112,0.0,0.0,89,0.05,,,0.05,WeatherDisplay:10.37,2013-01-12 02:21:00,
2013-01-11 21:26:00,35.1,32.2,30.15,ESE,112,0.0,0.0,89,0.04,CLR,,0.05,WeatherDisplay:10.37,2013-01-12 02:26:00,
2013-01-11 21:31:00,35.1,32.2,30.15,NE,45,0.0,0.0,89,0.04,RA,,0.06,WeatherDisplay:10.37,2013-01-12 02:31:00,
2013-01-11 21:36:00,35.1,32.2,30.15,NE,45,0.0,0.0,89,0.03,RA,,0.06,WeatherDisplay:10.37,2013-01-12 02:36:00,
2013-01-11 21:41:00,35.1,32.2,30.16,East,90,0.0,0.0,89,0.03,CLR,,0.07,WeatherDisplay:10.37,2013-01-12 02:41:00,
2013-01-11 21:46:00,35.2,32.3,30.16,ENE,68,0.0,0.0,89,0.03,RA,,0.07,WeatherDisplay:10.37,2013-01-12 02:46:00,
2013-01-11 21:51:00,35.2,32.6,30.15,East,90,0.0,0.0,90,0.03,RA,,0.07,WeatherDisplay:10.37,2013-01-12 02:51:00,
2013-01-11 21:56:00,35.2,32.6,30.15,East,90,2.7,2.7,90,0.04,RA,,0.08,WeatherDisplay:10.37,2013-01-12 02:56:00,
2013-01-11 22:01:00,35.4,32.8,30.15,ESE,112,2.3,2.3,90,0.04,RA,,0.08,WeatherDisplay:10.37,2013-01-12 03:01:00,
2013-01-11 22:06:00,35.4,32.8,30.15,ESE,112,1.7,1.7,90,0.04,CLR,,0.09,WeatherDisplay:10.37,2013-01-12 03:06:00,
2013-01-11 22:11:00,35.4,32.8,30.15,ESE,112,2.3,2.3,90,0.04,RA,,0.09,WeatherDisplay:10.37,2013-01-12 03:11:00,
2013-01-11 22:16:00,35.4,33.0,30.15,ESE,112,2.3,2.3,91,0.04,RA,,0.09,WeatherDisplay:10.37,2013-01-12 03:16:00,
2013-01-11 22:21:00,35.4,33.0,30.15,ESE,112,1.1,1.6,91,0.04,CLR,,0.09,WeatherDisplay:10.37,2013-01-12 03:21:00,
2013-01-11 22:26:00,35.6,33.2,30.14,SSE,158,2.2,2.2,91,0.05,RA,,0.10,WeatherDisplay:10.37,2013-01-12 03:26:00,
2013-01-11 22:31:00,35.6,33.2,30.14,ESE,112,2.3,2.3,91,0.04,RA,,0.10,WeatherDisplay:10.37,2013-01-12 03:31:00,
2013-01-11 22:36:00,35.8,33.4,30.14,SSE,158,2.3,0.0,91,0.04,,,0.10,WeatherDisplay:10.37,2013-01-12 03:36:00,
2013-01-11 22:41:00,35.8,33.4,30.14,ESE,112,2.3,2.3,91,0.04,CLR,,0.10,WeatherDisplay:10.37,2013-01-12 03:41:00,
2013-01-11 22:46:00,35.8,33.4,30.14,ESE,112,1.1,1.1,91,0.03,CLR,,0.10,WeatherDisplay:10.37,2013-01-12 03:46:00,
2013-01-11 22:51:00,35.8,33.4,30.14,NE,45,2.3,2.3,91,0.03,CLR,,0.10,WeatherDisplay:10.37,2013-01-12 03:51:00,
2013-01-11 22:56:00,35.8,33.4,30.14,NW,315,0.0,0.0,91,0.02,CLR,,0.10,WeatherDisplay:10.37,2013-01-12 03:56:00,
2013-01-11 23:01:00,35.8,33.4,30.14,NE,45,0.0,0.0,91,0.02,CLR,,0.10,WeatherDisplay:10.37,2013-01-12 04:01:00,
2013-01-11 23:06:00,35.8,33.4,30.15,SSE,158,0.0,0.0,91,0.02,CLR,,0.10,WeatherDisplay:10.37,2013-01-12 04:06:00,
2013-01-11 23:11:00,35.8,33.4,30.15,NE,45,0.0,0.0,91,0.02,RA,,0.11,WeatherDisplay:10.37,2013-01-12 04:11:00,
2013-01-11 23:16:00,36.0,33.6,30.14,ESE,112,2.3,2.3,91,0.02,RA,,0.11,WeatherDisplay:10.37,2013-01-12 04:16:00,
2013-01-11 23:21:00,36.0,33.6,30.14,ESE,112,0.0,0.0,91,0.02,CLR,,0.11,WeatherDisplay:10.37,2013-01-12 04:21:00,
2013-01-11 23:26:00,36.0,33.6,30.14,ESE,112,0.0,0.0,91,0.02,RA,,0.12,WeatherDisplay:10.37,2013-01-12 04:26:00,
2013-01-11 23:31:00,35.8,33.4,30.14,ESE,112,2.3,2.3,91,0.02,RA,,0.12,WeatherDisplay:10.37,2013-01-12 04:31:00,
2013-01-11 23:36:00,35.8,33.7,30.14,ESE,112,0.0,0.0,92,0.02,,,0.12,WeatherDisplay:10.37,2013-01-12 04:36:00,
2013-01-11 23:42:00,35.8,33.7,30.14,South,180,0.0,0.0,92,0.02,CLR,,0.12,WeatherDisplay:10.37,2013-01-12 04:42:00,
2013-01-11 23:47:00,36.0,33.9,30.14,ESE,112,1.1,1.1,92,0.02,CLR,,0.12,WeatherDisplay:10.37,2013-01-12 04:47:00,
2013-01-11 23:52:00,36.0,33.9,30.13,ESE,112,2.3,2.3,92,0.02,CLR,,0.12,WeatherDisplay:10.37,2013-01-12 04:52:00,
2013-01-11 23:57:00,36.1,34.0,30.13,ESE,112,2.7,2.7,92,0.02,CLR,,0.12,WeatherDisplay:10.37,2013-01-12 04:57:00,